Location: Colonia Mina de C?rbuni
(46.1667°N, 22.7167°E)
Time: 18:09:25
(UTC+00:00)

A-11 Canister half - Visible Passes

Search period start: 23 April 2024 00:00
Search period end: 03 May 2024 00:00
Orbit: 1525 x 1683 km, 47.3° (Epoch: 22 April)

Date Brightness Start Highest point End Pass type
(mag) Time Alt. Az. Time Alt. Az. Time Alt. Az.
23 Apr 10.7 01:31:09 10° S 01:37:56 21° SE 01:44:49 10° E visible
24 Apr 10.7 01:09:47 10° SSE 01:16:16 20° SE 01:22:51 10° E visible
25 Apr 10.7 00:48:28 10° SSE 00:54:36 19° SE 01:00:50 10° E visible
25 Apr 9.7 02:48:26 10° SW 02:57:57 55° SE 03:07:43 10° ENE visible
26 Apr 10.7 00:27:58 12° SSE 00:32:57 17° SE 00:38:46 10° E visible
26 Apr 9.6 02:26:45 10° SW 02:36:13 53° SE 02:45:54 10° ENE visible
27 Apr 10.7 00:07:24 13° SSE 00:11:17 16° ESE 00:16:40 10° E visible
27 Apr 9.6 02:05:41 12° SSW 02:14:28 51° SE 02:24:05 10° ENE visible
27 Apr 10.7 23:46:46 13° SE 23:49:38 15° ESE 23:54:31 10° E visible
28 Apr 9.6 01:45:03 16° SSW 01:52:45 49° SE 02:02:16 10° ENE visible
28 Apr 10.7 23:26:06 13° SE 23:27:59 14° ESE 23:32:18 10° E visible
29 Apr 9.6 01:24:23 20° SSW 01:31:01 47° SE 01:40:27 10° ENE visible
29 Apr 10.7 23:05:22 12° SE 23:06:21 12° ESE 23:09:57 10° E visible
30 Apr 9.6 01:03:38 24° SSW 01:09:18 45° SE 01:18:37 10° ENE visible
30 Apr 10.8 22:44:35 11° ESE 22:44:42 11° ESE 22:47:24 10° ESE visible
01 May 9.6 00:42:51 27° S 00:47:35 43° SE 00:56:48 10° ENE visible
01 May 9.3 02:42:06 10° WSW 02:52:02 84° SSE 03:02:14 10° ENE visible
01 May 10.8 22:23:46 10° ESE 22:23:46 10° ESE 22:24:13 10° ESE visible
02 May 9.7 00:22:01 30° S 00:25:52 41° SE 00:34:58 10° ENE visible
02 May 9.2 02:20:22 10° WSW 02:30:15 82° SSE 02:40:25 10° ENE visible
